GFSSW_925_rhum_363.txt.gz
RH
9 8 7 6 6 5 5 4 4 7 16 22 26 27 30 22 8 11 18 12 12 15 12 18 20 20 23 26 23 18 47 67 66 66 43 23 26 28 28 31 27 32 44 44 49
10 8 7 7 6 6 5 4 5 6 10 17 22 25 28 28 11 18 8 12 13 13 14 20 23 22 27 23 21 22 48 55 49 47 43 28 31 30 33 35 37 43 42 45 50
10 8 8 7 7 6 5 5 12 14 13 15 20 23 27 26 37 17 6 12 13 12 11 17 20 19 22 19 18 16 37 42 41 29 39 23 29 30 31 39 39 48 48 46 48
12 10 9 8 7 6 5 6 22 26 18 16 19 23 26 26 32 14 8 11 12 11 14 19 23 22 21 21 16 21 25 27 30 23 20 22 22 29 30 28 32 39 44 45 47
15 12 9 8 7 6 5 8 29 32 23 16 18 23 25 36 18 13 12 13 13 14 19 23 26 20 20 16 16 21 25 23 29 29 24 18 21 27 32 31 33 40 43 45 45
17 13 10 9 8 6 5 16 36 36 25 18 18 24 40 32 13 12 12 14 14 16 21 23 24 15 16 17 18 19 23 35 37 32 28 31 30 24 43 38 40 40 44 43 43
22 15 11 10 8 6 5 24 42 34 23 20 17 24 38 32 14 12 15 14 14 18 21 18 17 15 17 21 18 22 20 39 45 37 32 28 31 57 55 47 45 42 42 42 40
29 17 11 10 8 6 9 31 41 31 23 21 19 34 45 14 13 14 14 14 13 16 17 16 14 17 17 19 19 23 40 54 37 36 34 36 40 55 52 54 48 43 43 41 38
37 19 12 10 8 6 20 40 36 27 30 27 25 43 39 12 10 8 11 12 12 12 14 13 14 19 21 25 29 36 50 50 44 46 36 38 37 44 50 42 48 47 62 60 45
45 25 13 10 8 6 38 44 34 29 34 36 35 34 27 17 8 8 9 10 12 13 14 14 19 25 28 30 38 44 44 51 45 31 30 31 32 40 46 41 56 85 79 85 88
50 32 16 11 8 7 43 48 49 50 42 33 25 24 14 14 7 6 7 11 13 15 21 18 26 33 28 25 21 34 33 47 39 30 32 29 26 56 52 52 70 81 81 83 88
49 38 19 12 8 14 50 52 44 47 60 31 31 24 15 11 12 8 8 18 17 23 20 22 28 23 20 19 20 21 25 32 32 24 30 26 22 44 56 56 68 81 81 80 81
48 37 22 12 8 36 41 40 50 52 67 35 21 21 17 12 15 14 9 18 21 26 23 27 24 18 19 21 21 20 22 22 23 21 20 21 23 36 49 59 62 68 65 62 79
49 39 26 12 20 32 43 43 57 62 81 28 22 14 14 13 18 12 9 16 20 25 24 26 19 19 19 20 20 24 19 19 22 26 32 20 34 23 49 60 57 65 70 67 64
54 43 30 19 16 47 34 35 52 73 56 25 16 10 11 14 13 12 9 15 23 22 23 28 24 23 21 20 17 23 19 21 22 25 25 25 28 23 46 50 50 51 65 68 70
58 49 36 44 56 36 41 31 70 68 84 34 15 13 12 13 13 10 11 13 16 21 20 22 16 18 19 16 16 17 20 26 26 25 36 25 28 24 30 21 35 39 48 70 72
60 55 48 36 49 37 35 63 77 83 27 17 19 17 17 16 14 14 14 18 24 28 29 22 21 17 15 19 17 20 32 50 43 45 45 22 26 33 26 20 32 38 45 47 72
62 56 42 25 13 47 59 75 94 54 32 12 12 15 20 17 17 16 16 20 20 22 29 29 36 21 17 21 25 25 32 58 40 46 38 24 28 29 23 20 24 28 32 36 37
63 48 50 18 12 35 79 93 75 52 25 19 17 18 19 16 17 17 19 17 20 21 30 32 30 16 16 18 21 29 34 29 38 36 43 35 26 21 20 25 28 30 33 34 32
65 50 46 45 45 52 84 62 54 34 22 22 28 21 23 18 18 20 20 17 17 18 22 25 32 21 16 18 22 26 23 34 58 47 46 35 29 29 26 24 28 32 41 37 32
52 65 23 23 50 86 84 59 34 27 25 25 27 32 23 22 17 22 21 16 16 14 22 22 36 24 21 21 28 24 27 30 39 56 55 53 42 22 22 20 26 36 42 42 40
50 71 65 50 90 75 69 41 28 27 24 30 26 34 38 36 34 24 22 21 18 15 17 20 37 39 28 20 18 22 29 31 62 38 50 58 55 24 23 20 25 37 40 46 43
60 55 72 60 86 63 43 38 35 30 28 31 32 31 33 35 41 27 27 20 16 26 28 31 37 45 34 28 20 22 22 28 38 45 42 52 46 20 21 23 23 41 44 46 47
73 91 86 91 75 61 48 45 42 32 31 26 28 28 33 37 32 38 37 29 27 32 38 37 36 42 49 41 34 25 22 21 28 50 45 45 35 27 23 23 22 30 46 48 48
55 92 72 99 92 77 64 51 43 40 32 26 26 28 34 41 38 41 34 36 30 43 28 34 41 33 31 26 25 24 28 27 33 36 40 31 29 24 22 21 20 40 42 43 44
75 74 84 79 73 71 65 61 56 37 32 31 34 32 29 37 39 38 45 42 42 36 34 36 43 32 38 30 25 26 23 22 23 26 26 26 25 20 20 21 19 33 36 41 42
48 47 78 82 74 75 65 56 49 40 31 27 30 35 33 35 56 51 48 46 47 46 47 45 49 50 55 34 33 43 31 25 24 21 20 25 29 39 38 32 23 17 35 39 40

GFSSW_925_rhum_366.txt.gz
RH
12 8 7 7 6 6 5 5 5 10 11 14 19 23 25 27 19 10 15 10 9 14 16 15 22 19 24 30 28 27 61 76 72 66 57 32 31 30 33 45 40 43 50 48 73
14 10 8 8 7 6 5 5 6 18 18 16 18 22 24 27 21 20 7 8 8 12 14 17 24 24 30 30 25 32 53 53 50 47 50 36 31 36 37 43 51 53 48 60 72
18 11 9 8 8 6 6 5 6 23 30 21 17 21 24 26 38 18 4 6 11 15 14 18 21 23 26 25 24 21 41 42 39 40 40 35 32 34 38 45 50 59 57 60 66
23 14 10 9 8 7 6 5 9 27 34 27 19 19 24 29 24 15 6 11 12 15 15 18 22 26 28 23 19 19 29 36 30 33 32 32 28 34 36 37 42 49 53 57 61
30 20 13 10 9 8 6 5 12 34 39 30 23 20 25 35 25 8 9 9 12 16 19 22 26 29 27 19 18 22 29 32 32 28 28 25 30 33 36 38 44 47 53 56 57
36 25 16 11 9 8 7 5 17 38 42 29 24 24 38 38 9 13 10 11 14 16 20 23 28 26 23 18 19 25 39 38 36 36 30 30 31 40 41 44 48 49 52 52 55
42 31 20 12 10 9 7 6 24 44 38 28 25 26 44 29 14 16 14 13 13 14 21 21 21 21 19 20 19 22 37 38 42 36 32 30 31 50 46 45 51 50 50 56 52
47 34 22 13 10 9 6 10 38 42 31 28 25 37 34 14 14 15 15 16 14 15 18 17 18 18 19 18 22 24 43 44 36 36 32 31 40 55 51 49 55 57 52 60 58
49 40 25 15 11 9 7 30 42 28 32 31 30 48 37 15 15 11 14 15 15 14 15 16 16 20 22 28 34 42 45 44 42 36 32 30 34 54 60 53 53 60 76 79 77
50 44 30 15 11 9 12 41 45 32 38 40 36 40 26 18 13 11 8 10 15 15 16 15 24 27 31 35 42 42 48 50 41 30 39 40 38 53 58 55 57 78 84 81 80
56 49 36 18 12 10 19 49 50 53 46 31 24 33 22 14 11 10 8 10 14 16 22 18 27 32 28 30 27 32 36 29 43 32 30 35 34 44 58 67 88 81 83 79 77
63 54 41 21 12 9 42 57 47 50 66 43 39 38 30 24 19 9 7 15 20 23 21 22 30 26 24 25 26 30 34 37 38 34 33 35 39 36 57 54 81 78 81 82 87
64 58 44 27 13 21 36 47 60 60 74 52 38 28 30 24 23 16 13 20 20 26 25 28 24 21 23 25 27 27 27 25 29 24 29 25 26 52 53 62 79 77 73 78 86
65 61 48 31 19 21 49 36 49 68 67 40 37 21 23 16 20 14 11 17 21 25 28 27 20 22 24 26 24 30 21 22 24 25 29 22 35 25 62 64 70 76 79 83 79
65 64 53 46 57 41 47 39 39 67 42 16 24 12 18 18 16 15 12 17 25 24 26 32 26 28 26 25 23 27 22 22 24 27 24 24 30 30 58 61 60 79 73 73 73
68 66 57 44 40 31 43 35 67 65 56 34 17 18 23 19 15 12 14 13 21 23 22 28 21 22 24 20 18 18 23 31 30 32 39 28 29 34 50 34 38 53 67 64 62
70 69 64 63 37 31 41 68 72 67 25 24 20 16 20 20 19 15 15 20 27 33 34 25 23 20 17 20 20 23 38 53 46 45 45 27 30 30 32 26 25 45 62 61 66
76 75 63 57 43 26 47 87 88 41 43 23 18 19 20 19 19 19 19 20 24 26 34 32 34 22 18 22 23 27 36 60 45 48 39 27 32 30 27 25 33 40 54 70 78
82 75 62 46 30 30 86 96 63 66 33 24 18 21 26 22 20 22 26 23 24 24 29 39 32 20 20 19 22 27 38 32 38 40 47 39 30 23 29 32 34 39 62 83 78
85 66 57 47 47 40 94 55 57 49 29 24 29 24 30 24 25 25 25 22 18 24 21 27 32 23 20 18 23 24 28 38 59 54 52 44 29 33 28 30 34 37 41 48 55
70 70 35 29 50 89 72 63 35 30 28 34 32 32 35 31 25 28 22 18 19 22 24 27 34 24 20 23 35 28 33 40 48 56 55 53 46 30 27 28 36 38 43 46 51
61 85 37 46 88 94 68 47 30 26 26 32 34 36 37 37 40 31 28 20 20 18 29 30 41 37 24 21 22 24 31 38 59 37 59 56 48 25 27 24 33 35 39 48 48
69 68 52 59 81 86 54 36 36 34 33 32 38 33 32 35 37 37 29 28 22 25 29 33 41 46 31 26 25 22 23 35 46 51 44 57 47 26 24 26 24 36 45 50 51
79 89 75 88 78 54 56 45 44 37 35 35 35 32 34 36 35 38 34 30 31 28 42 41 43 41 40 34 33 28 25 31 38 57 40 52 35 28 26 26 24 29 45 53 55
79 84 77 99 90 85 62 51 44 48 36 36 37 38 37 42 37 41 40 35 32 37 29 38 40 36 36 29 29 29 26 26 32 35 40 31 35 28 26 25 23 27 43 53 52
95 77 88 95 81 91 80 77 64 42 46 42 44 32 33 42 41 39 42 46 40 34 32 41 44 33 35 29 28 27 27 25 27 28 34 31 32 52 33 32 40 42 45 47 48
78 64 90 87 92 89 91 74 60 53 48 44 39 35 35 36 52 51 49 52 47 43 45 46 49 54 44 34 37 42 32 28 24 23 24 28 39 55 52 52 53 56 54 48 47

GFSSW_925_rhum_369.txt.gz
RH
11 10 9 8 8 8 7 6 5 8 27 25 19 20 23 24 25 22 16 10 9 13 16 17 20 26 26 30 31 36 68 80 68 71 50 44 38 37 41 53 46 49 55 58 90
14 12 10 8 8 8 7 6 5 9 28 36 24 20 22 25 26 29 8 7 9 12 14 16 22 26 31 32 34 39 57 59 55 54 48 33 36 40 49 50 53 58 60 82 96
24 18 12 10 9 9 8 6 6 9 29 39 32 22 22 25 38 20 10 6 7 9 14 16 20 23 28 28 28 30 37 41 40 45 41 38 36 38 52 52 53 65 84 85 92
32 25 18 13 10 10 8 7 6 9 30 42 34 26 23 33 13 16 12 4 6 10 19 18 22 26 30 27 23 23 27 40 31 43 38 39 35 40 40 40 49 58 75 82 86
46 32 22 17 12 10 9 8 6 8 32 42 35 28 28 37 29 10 11 8 8 9 18 21 26 30 32 25 20 27 32 34 35 31 30 29 34 40 40 47 53 63 71 78 78
52 44 30 19 14 11 10 8 6 14 34 43 34 30 40 35 12 14 14 8 9 13 20 23 25 28 29 27 21 33 37 38 36 33 34 32 35 35 49 56 59 65 70 70 70
54 49 37 23 15 11 10 8 7 26 42 39 30 32 49 27 15 14 17 13 11 14 22 20 22 24 22 22 21 33 35 38 34 34 30 29 31 43 58 56 63 64 64 66 65
54 50 41 28 16 11 10 8 18 43 36 30 30 40 37 13 16 14 13 16 16 16 17 17 21 21 22 20 27 35 42 41 32 36 32 28 38 63 57 59 67 63 62 62 63
63 56 45 32 18 12 10 10 39 36 32 33 33 49 42 14 18 11 16 16 17 17 18 19 19 23 24 30 33 39 44 45 35 42 35 33 34 69 60 59 65 62 63 62 70
62 61 54 38 20 12 10 33 50 40 43 44 44 44 26 16 15 12 12 14 16 17 17 18 26 28 34 35 41 35 43 43 43 30 39 39 41 69 66 61 64 73 69 69 73
62 60 60 48 21 13 14 47 49 51 49 31 23 37 26 23 15 11 10 16 16 17 24 21 28 32 28 32 29 30 38 39 34 34 31 34 39 71 74 68 89 87 79 74 74
64 61 60 54 24 13 38 60 62 71 78 51 44 41 34 30 27 20 10 13 21 25 23 24 32 26 24 29 28 30 33 36 35 36 35 37 40 54 73 71 80 79 85 82 82
74 65 62 56 24 30 28 52 41 68 84 59 46 33 32 27 32 26 14 18 22 26 26 29 24 23 25 25 28 30 33 34 35 25 32 25 26 56 68 85 83 72 70 79 83
85 69 67 58 30 37 51 42 35 72 78 40 45 31 27 25 25 17 12 19 23 28 28 26 21 23 26 26 27 32 28 26 28 28 34 22 35 26 69 89 87 76 84 74 86
91 82 70 66 58 53 48 37 38 63 50 17 32 17 23 20 18 17 13 15 27 27 28 31 29 28 28 25 25 30 25 28 27 28 28 28 31 27 70 75 87 83 78 76 78
99 90 78 70 59 33 31 37 70 74 60 27 25 24 28 21 17 14 15 15 21 25 24 26 23 26 26 24 26 22 26 33 34 37 42 31 30 31 66 55 55 75 73 72 75
100 96 90 79 58 47 39 73 87 77 26 17 25 23 28 27 22 16 21 22 30 33 36 27 26 21 19 21 20 28 37 51 46 50 52 30 35 30 26 39 38 62 70 69 68
95 100 96 82 63 62 55 92 89 42 35 28 20 22 29 25 25 22 20 23 23 28 37 37 37 26 22 23 23 34 38 60 48 52 46 29 33 30 28 32 27 39 58 62 64
96 99 100 81 65 61 74 98 53 57 31 25 19 25 24 22 24 23 27 27 22 30 30 42 35 22 21 20 22 29 38 34 48 46 44 38 33 25 29 38 46 60 67 68 64
100 97 84 75 56 58 98 59 50 48 39 24 25 24 33 28 25 28 31 25 20 28 23 30 32 25 20 21 22 29 33 42 61 58 51 48 40 34 30 31 36 58 72 76 69
100 98 70 58 62 80 80 68 39 31 27 36 37 32 33 30 30 32 25 20 22 30 25 31 31 24 21 26 29 32 38 46 51 58 56 51 46 33 32 32 35 39 49 71 81
99 99 60 58 85 71 52 49 34 26 23 28 34 39 41 39 39 31 30 23 23 30 28 29 40 33 27 23 24 32 37 40 59 44 59 53 44 28 31 32 36 35 37 50 56
99 98 65 64 86 86 40 38 32 36 28 34 39 36 35 39 36 38 35 29 27 28 32 34 40 41 35 28 25 25 32 41 49 52 64 61 49 27 28 27 27 32 34 48 54
100 99 90 93 66 61 60 48 40 34 32 32 38 35 34 38 34 34 37 32 32 27 51 32 44 34 31 30 35 28 29 43 42 56 50 51 34 27 26 28 30 30 35 47 56
100 98 79 100 97 79 62 47 44 49 29 31 40 38 38 43 42 44 38 36 32 39 34 38 40 37 35 28 34 29 30 38 35 36 40 33 39 28 27 30 37 44 42 42 56
99 99 89 95 82 85 80 87 58 39 45 37 42 34 43 45 43 39 37 43 39 35 33 41 46 36 37 32 30 28 31 34 33 34 32 30 32 43 49 54 58 60 58 58 56
98 90 99 86 91 95 80 72 71 50 46 40 44 43 41 44 37 37 45 48 44 43 43 41 52 48 46 38 33 39 36 29 26 27 28 34 31 53 53 59 61 62 62 62 58

GFSSW_925_rhum_372.txt.gz
RH
37 28 22 14 11 11 10 8 6 5 12 28 35 24 21 22 23 26 24 10 9 10 19 21 22 22 27 30 32 45 60 73 62 73 52 46 40 43 45 58 49 53 66 64 90
31 28 23 17 14 11 11 10 8 6 10 26 35 34 24 24 27 36 11 9 8 11 12 16 23 30 35 33 38 43 60 53 53 56 49 44 41 48 48 55 54 68 83 95 99
37 33 26 21 17 13 11 10 9 7 8 25 37 33 26 26 39 18 14 10 9 8 12 16 19 26 30 32 33 39 45 40 36 49 42 39 42 44 53 59 55 66 94 90 92
53 40 31 23 19 15 11 10 9 8 8 24 38 33 26 37 23 12 12 9 10 8 12 21 24 29 32 31 27 29 28 36 34 49 46 43 39 42 45 42 47 71 88 89 87
55 51 43 29 24 16 12 10 9 8 11 25 40 35 29 41 32 13 12 7 10 10 19 22 27 30 30 30 24 24 31 38 36 44 36 33 36 40 50 62 67 75 88 92 88
63 59 52 41 27 18 12 10 9 9 19 36 42 34 40 35 14 17 18 8 8 11 20 21 24 27 30 31 24 26 38 38 35 35 32 34 40 39 58 70 75 80 89 89 89
65 60 57 52 34 19 13 10 9 16 42 42 35 35 55 28 16 18 18 15 11 10 24 19 22 25 27 25 24 35 35 36 33 36 33 32 39 45 63 69 77 80 82 85 84
66 64 59 55 39 22 12 10 14 41 33 29 31 43 33 12 17 14 15 18 15 16 16 16 19 24 23 22 31 38 40 42 31 36 34 32 40 59 67 71 78 78 78 80 80
80 67 61 56 46 22 12 10 35 45 37 34 37 50 34 14 17 11 15 17 19 19 18 20 23 26 24 31 34 40 45 46 40 38 36 34 34 64 68 69 77 76 75 75 79
87 80 66 58 52 26 12 28 50 52 48 47 49 38 20 13 17 15 15 16 18 22 20 21 28 31 36 37 47 36 44 43 46 33 41 40 42 74 74 71 76 78 76 76 78
90 88 79 61 50 31 16 52 68 56 61 36 23 40 30 28 22 14 16 19 18 20 28 24 30 37 32 32 29 33 39 39 36 35 34 39 44 69 78 72 79 83 78 79 81
94 93 88 70 51 27 30 65 60 67 92 62 58 49 35 32 30 20 13 17 23 26 24 26 36 29 25 30 30 31 32 35 31 32 35 37 39 54 82 72 78 81 79 81 81
86 95 96 80 52 31 47 52 36 60 98 72 56 43 33 33 34 27 16 19 21 28 30 33 25 26 27 32 32 32 35 33 31 28 32 26 27 58 66 77 81 81 76 79 83
74 97 100 84 44 57 46 33 34 72 96 57 45 40 34 32 35 23 14 18 24 26 29 28 24 24 28 27 29 31 29 28 29 35 42 24 42 27 70 81 88 82 80 82 87
80 84 100 97 79 57 35 30 37 70 56 20 31 21 27 27 21 23 14 18 25 28 29 31 30 28 29 28 26 28 27 28 30 34 31 29 37 33 71 79 80 81 81 80 81
76 80 99 96 78 59 52 38 69 73 62 28 26 26 32 22 18 18 17 16 23 29 26 28 25 25 26 24 26 25 29 35 38 40 47 34 35 34 50 58 59 69 77 75 79
66 85 98 97 82 71 64 56 92 83 27 18 28 30 32 28 22 20 23 26 30 38 39 28 28 23 22 24 24 29 40 54 50 53 56 34 34 32 24 37 45 59 68 72 73
55 75 91 100 98 86 61 88 98 53 36 26 26 28 32 28 27 22 27 28 27 26 40 40 40 29 24 26 28 35 39 64 50 57 45 33 37 30 26 38 38 43 60 65 73
79 81 99 97 92 89 68 98 71 59 31 25 22 28 31 28 28 24 28 27 25 30 29 44 38 24 25 23 24 34 44 36 51 51 45 39 31 28 27 37 45 45 64 74 74
100 95 87 91 93 70 86 69 66 43 42 32 24 27 35 30 29 29 32 27 23 30 26 34 32 26 20 22 25 31 36 44 62 58 52 49 41 36 28 32 42 54 66 72 73
96 95 73 83 78 93 96 64 37 33 35 37 37 26 34 32 30 35 30 22 24 32 26 37 31 24 28 31 36 37 42 49 51 61 57 54 48 37 29 34 41 47 55 59 68
90 98 78 83 99 100 96 55 35 32 29 30 30 43 41 42 43 35 32 26 26 32 28 34 38 36 29 24 27 35 40 43 61 48 61 57 49 27 30 33 36 37 40 47 63
99 93 78 82 98 98 74 63 38 35 32 32 35 38 40 47 40 41 37 30 28 31 34 34 40 41 35 32 29 32 37 44 51 59 65 56 48 28 32 32 31 33 32 38 46
99 98 99 98 96 91 83 67 52 35 32 32 41 38 38 41 37 40 38 35 32 31 39 30 43 27 33 32 41 33 38 47 43 59 53 56 36 26 30 33 26 27 34 37 51
100 98 92 99 96 95 84 59 54 50 29 33 33 39 40 44 42 41 38 33 34 53 42 34 38 35 31 26 31 30 32 48 42 44 47 37 38 28 30 31 40 54 56 53 51
100 100 99 98 87 99 96 96 62 40 43 30 37 41 42 42 45 41 37 39 39 36 38 43 41 39 39 35 33 33 33 41 38 40 31 37 38 38 60 60 63 64 62 61 60
98 97 99 95 94 97 94 86 78 45 42 31 34 32 35 43 42 38 38 42 46 41 47 44 57 52 49 42 38 40 43 41 38 38 39 43 35 61 65 64 64 65 67 67 64

GFSSW_925_rhum_375.txt.gz
RH
84 75 36 19 17 12 10 9 8 7 6 10 25 30 25 20 20 25 27 12 9 14 15 20 21 22 26 27 30 38 37 43 43 52 38 39 36 40 41 46 46 45 52 56 81
70 70 58 34 21 16 13 10 9 8 7 8 22 31 29 23 26 39 12 12 9 10 13 17 24 26 24 28 31 32 40 36 38 40 35 39 35 38 39 44 47 56 72 77 84
62 61 57 45 31 22 14 11 10 9 8 8 19 31 30 24 40 18 15 14 11 9 12 14 25 25 27 30 32 36 32 32 30 36 35 33 38 37 37 45 37 43 82 82 91
60 59 58 54 41 27 15 12 11 10 9 10 20 34 32 31 19 11 12 13 13 10 12 21 22 26 30 29 28 30 27 28 25 36 39 35 33 36 37 28 33 37 69 82 85
68 62 56 54 48 26 17 12 10 10 12 20 33 38 32 39 28 14 13 12 15 11 15 23 24 27 29 27 24 25 23 34 30 38 36 34 33 33 37 39 50 62 73 76 80
82 74 64 55 50 38 19 13 10 10 24 40 43 40 36 25 14 19 19 14 12 14 21 21 19 23 26 28 25 23 30 34 32 36 33 30 35 35 34 50 66 70 72 73 77
89 85 77 66 51 40 26 12 10 17 39 28 38 36 51 20 16 20 20 14 14 14 21 20 21 25 26 25 23 34 35 32 33 32 31 28 32 36 44 58 65 70 73 74 75
91 88 86 76 60 44 29 11 14 32 36 32 31 47 27 9 15 15 12 20 14 14 16 17 19 23 24 22 28 32 34 34 29 34 33 28 30 27 54 57 58 69 72 78 79
74 91 83 77 63 49 25 15 34 51 40 37 41 50 27 12 16 13 16 21 20 17 17 23 24 25 24 26 28 34 31 38 32 34 32 30 29 29 57 58 57 64 68 74 75
71 72 92 76 62 51 18 38 52 55 56 54 56 38 18 11 22 17 18 19 22 24 21 22 26 27 29 28 34 35 37 38 34 29 35 34 30 30 50 58 56 61 65 72 74
64 69 93 79 64 46 34 53 55 54 61 57 41 36 30 26 24 18 20 19 21 24 27 26 28 31 30 31 27 27 33 33 30 28 31 30 30 28 39 59 58 63 66 70 68
59 69 81 83 60 39 44 54 49 59 77 58 62 60 46 35 32 18 19 22 25 27 27 28 31 29 27 28 27 29 31 30 26 26 33 33 30 34 47 54 53 56 65 64 67
56 64 81 79 65 56 55 52 52 60 96 76 62 48 34 34 36 29 19 23 24 28 28 29 25 27 26 30 30 30 31 30 26 27 31 31 26 33 41 58 61 61 56 57 60
47 58 85 79 71 76 46 46 50 65 96 65 47 43 34 34 38 24 15 20 26 25 28 26 23 27 28 28 26 32 26 26 27 28 29 25 30 25 29 42 50 47 55 59 60
78 49 83 84 96 76 63 58 46 85 61 22 31 26 31 24 21 27 16 20 24 26 28 29 30 28 28 25 26 25 23 24 25 29 29 26 28 24 49 32 27 31 48 59 62
85 51 72 91 87 77 69 65 65 70 69 27 24 29 39 32 19 20 18 20 23 26 30 26 26 22 22 25 22 26 26 32 34 32 39 30 28 26 22 26 29 37 39 48 63
72 68 67 92 82 86 84 53 90 89 30 21 17 30 33 34 24 23 25 26 27 31 32 31 30 26 25 24 26 26 33 43 45 46 43 32 30 25 22 20 29 28 30 44 57
58 71 60 70 75 97 80 60 88 54 40 23 26 28 32 29 27 24 28 25 28 25 25 30 35 28 26 25 26 33 30 49 46 46 37 32 32 24 21 24 31 32 29 44 56
82 73 91 79 74 100 74 92 60 45 38 29 18 24 28 29 25 25 32 26 22 27 28 32 27 26 25 23 22 37 35 32 45 49 39 30 27 22 22 26 31 30 36 40 48
100 87 84 53 74 96 98 76 55 38 36 37 32 23 25 31 30 30 31 24 23 26 24 34 36 27 24 23 27 28 31 41 51 59 43 36 36 24 23 23 28 33 34 37 47
96 93 61 56 90 97 96 86 56 32 30 38 38 34 24 24 31 33 27 21 21 31 28 35 36 29 29 29 28 36 38 46 42 46 39 37 32 27 21 21 26 30 36 37 41
92 90 69 92 95 97 93 83 55 46 30 29 34 33 36 35 25 33 30 25 27 26 25 32 43 42 28 26 26 22 28 32 45 49 53 41 29 24 26 26 30 31 37 37 39
96 86 67 81 96 94 78 64 64 59 41 37 32 31 35 49 44 42 35 28 28 26 26 36 43 37 26 25 31 31 35 33 45 48 44 42 32 27 28 28 30 30 30 29 31
100 98 89 98 83 82 84 82 78 57 57 49 34 32 37 43 39 45 44 38 36 30 49 27 43 26 29 24 33 39 43 44 32 46 35 36 27 24 26 30 30 30 30 34 34
100 92 79 87 95 92 77 81 83 78 49 40 46 35 36 49 45 47 41 36 35 58 41 34 31 34 22 25 23 18 27 41 37 31 36 27 31 23 23 30 30 44 48 44 43
100 100 98 89 76 97 98 87 83 67 57 45 48 34 33 44 46 49 39 41 41 41 43 43 37 38 40 26 26 24 24 33 32 31 28 27 30 29 42 46 49 52 49 50 50
97 90 94 76 84 98 94 83 72 75 70 45 38 40 38 36 35 40 46 43 43 43 48 45 51 46 32 34 31 36 32 30 31 32 26 33 27 48 53 50 51 54 55 55 54

GFSSW_925_rhum_381.txt.gz
RH
64 63 56 44 31 20 22 21 15 11 10 10 10 10 14 21 16 29 19 12 12 12 12 12 13 12 12 14 16 15 20 21 19 21 24 18 18 15 16 20 21 23 26 31 46
67 63 56 52 48 36 25 18 16 14 10 10 11 15 16 26 29 17 13 14 13 10 15 10 10 10 12 15 16 18 17 17 15 15 17 17 18 17 18 19 23 29 32 38 48
74 66 60 51 46 42 35 26 18 12 11 10 13 25 26 27 25 10 14 14 13 10 12 9 9 9 13 13 17 17 18 13 13 14 14 16 17 16 17 20 19 27 36 41 46
67 61 57 52 44 38 34 28 23 12 9 15 27 32 32 45 16 13 12 14 14 15 10 8 10 12 14 14 15 19 14 13 12 12 14 15 14 17 16 17 18 19 31 39 44
64 59 53 49 44 34 29 28 23 12 10 19 30 34 37 23 11 13 13 19 15 15 8 7 11 11 14 13 15 19 15 12 12 13 14 14 16 17 16 14 19 21 31 37 40
50 52 49 43 39 29 25 22 20 13 13 29 27 35 38 17 6 14 19 30 17 12 8 7 9 9 12 12 15 16 16 13 12 15 15 19 16 17 15 20 26 29 30 34 38
47 44 40 43 35 25 27 19 18 18 20 33 29 40 27 14 8 15 14 14 16 12 7 7 8 8 9 13 12 16 18 15 14 16 17 17 19 17 14 23 28 31 31 32 35
32 33 29 32 34 32 28 23 21 27 36 37 30 43 24 10 10 10 14 14 12 10 7 6 9 9 9 8 13 17 17 20 14 16 16 18 19 14 19 22 25 29 31 34 36
35 29 23 26 29 36 30 28 32 47 47 38 50 36 16 11 10 9 9 9 11 8 8 7 9 12 10 12 18 16 20 19 17 13 17 19 19 16 16 17 20 29 32 35 37
55 33 21 21 25 40 26 30 38 50 50 55 41 35 20 8 10 14 14 11 13 10 10 14 14 14 12 13 17 16 17 16 17 17 18 17 18 12 16 17 18 25 31 38 41
75 45 24 21 41 47 44 21 20 32 21 22 24 24 19 10 13 11 14 13 13 11 12 13 16 16 11 12 11 9 10 14 12 11 21 18 15 13 10 17 18 21 31 41 42
63 44 30 20 59 52 42 33 44 46 43 20 16 16 16 15 21 13 12 15 18 19 11 13 19 13 10 9 10 11 12 11 11 11 12 15 16 12 11 11 14 18 27 37 42
67 46 34 24 55 50 46 48 50 50 50 22 16 16 11 11 17 14 8 14 15 20 14 15 13 12 12 12 12 13 16 14 13 12 12 16 17 13 11 11 13 16 22 30 37
81 53 44 28 44 44 44 51 56 66 44 10 22 20 19 12 17 13 7 11 14 17 16 15 12 14 15 14 11 14 14 13 14 14 17 15 22 13 11 11 15 19 21 26 33
88 56 37 57 52 40 46 53 59 71 96 7 12 14 13 16 9 7 9 9 13 13 15 18 14 15 16 15 12 15 13 14 16 17 16 15 16 12 10 12 15 14 21 23 28
75 55 53 42 43 38 39 61 60 66 85 7 7 10 13 15 14 9 10 7 9 11 11 14 10 12 13 12 12 13 13 14 16 20 26 16 15 14 12 18 14 11 12 21 25
61 49 70 56 44 43 53 50 51 100 10 5 4 3 4 7 8 10 11 14 15 16 17 12 13 11 12 14 13 12 17 30 31 34 30 15 16 14 11 10 14 11 9 14 23
60 59 60 48 54 49 55 39 100 26 14 6 5 4 5 4 5 6 8 13 12 13 12 14 16 12 11 15 16 15 18 32 37 28 22 15 19 14 10 9 11 10 8 13 20
65 58 53 46 64 55 42 62 41 15 8 8 7 8 7 5 7 7 8 9 9 9 16 14 13 8 10 11 14 16 22 18 26 23 24 17 13 11 12 11 11 11 11 16 21
64 64 50 54 67 54 46 35 21 14 12 14 18 12 12 8 8 8 8 7 10 8 8 13 19 9 7 10 13 15 14 27 27 46 35 20 17 18 16 15 13 11 11 18 24
64 52 50 59 63 71 80 45 31 21 20 21 21 21 18 17 12 14 10 7 6 9 9 9 17 16 10 12 16 18 20 19 21 27 32 30 20 13 13 14 14 11 10 15 23
70 80 60 60 78 70 64 45 38 31 26 27 26 27 28 26 27 22 16 12 7 6 11 10 18 21 15 10 11 14 18 18 28 31 25 25 22 10 11 12 11 10 10 11 18
83 62 47 56 85 63 42 36 30 28 26 27 30 27 26 30 38 28 25 19 15 10 12 11 18 27 20 14 12 18 16 16 21 22 26 32 25 11 12 12 11 11 10 13 17
80 88 48 65 56 59 52 45 39 26 27 25 27 28 33 33 28 50 42 21 20 16 24 24 20 20 31 20 16 20 17 17 22 30 30 24 19 14 14 14 12 12 12 17 18
86 76 48 76 64 61 53 51 53 45 30 27 32 29 39 46 35 42 44 29 25 27 26 25 28 24 18 15 12 13 16 17 18 21 27 23 17 14 12 14 13 13 14 14 15
99 100 64 57 51 60 61 62 46 38 33 35 51 36 40 54 65 44 39 38 34 28 53 36 31 25 26 16 14 14 11 15 15 14 16 18 17 11 11 13 13 13 13 14 14
85 75 87 75 63 62 60 54 50 39 43 48 47 49 54 57 41 48 43 35 34 52 48 63 51 31 34 20 17 24 14 10 13 12 13 18 17 12 12 12 13 13 13 15 17

GFSSW_925_rhum_384.txt.gz
RH
65 55 51 47 42 38 40 40 23 16 10 9 9 10 14 15 12 27 22 13 14 14 11 9 10 11 12 13 13 14 23 26 42 39 26 18 16 15 15 20 19 20 31 35 42
58 52 47 44 41 36 32 31 32 25 12 9 9 14 25 26 29 23 11 14 15 13 11 8 9 10 12 13 14 18 22 23 26 21 26 21 16 16 17 17 23 31 32 38 40
56 49 42 37 37 33 26 26 25 24 16 10 10 25 30 31 35 12 12 11 12 12 10 8 7 8 11 12 14 17 21 18 16 12 13 14 14 18 22 18 40 38 39 41 39
37 37 35 33 29 26 20 20 21 21 15 13 17 24 32 37 18 16 12 15 14 14 12 9 9 10 11 13 12 16 16 14 12 11 12 13 12 18 17 22 23 30 34 39 39
30 30 27 25 25 21 17 22 16 16 17 17 27 26 34 33 16 11 12 12 14 17 12 8 9 10 14 13 13 14 15 14 12 11 11 12 14 15 15 24 22 27 34 39 38
30 25 24 24 20 19 23 24 18 15 17 20 32 29 45 26 8 10 14 19 22 15 11 8 7 7 10 11 13 12 14 16 14 12 12 14 14 14 14 20 27 30 36 37 38
26 22 20 21 18 16 24 25 24 17 21 30 35 35 31 18 8 8 14 12 18 16 12 8 6 7 8 11 10 11 15 16 15 13 13 14 18 15 12 21 24 29 32 35 36
40 24 20 18 12 20 29 22 27 21 33 39 34 51 30 12 8 8 7 12 12 13 12 10 6 8 11 10 10 13 15 23 17 14 13 15 22 15 18 24 26 26 29 34 35
46 25 19 17 30 42 38 25 26 37 41 40 45 48 23 11 9 7 6 6 8 10 9 9 6 8 10 12 14 12 19 20 19 13 13 16 19 14 18 21 23 26 28 33 36
42 26 16 16 49 45 39 22 23 30 49 57 42 33 23 11 8 10 12 10 8 11 9 8 7 9 12 14 18 14 18 19 18 13 13 16 25 16 16 17 16 26 28 34 40
46 29 17 17 50 47 41 21 20 38 21 18 20 23 18 12 9 11 9 11 9 13 15 12 18 17 13 14 12 10 12 13 12 11 13 20 23 24 22 17 17 26 30 39 39
49 32 19 26 43 45 40 37 43 48 50 24 16 11 9 8 11 10 9 15 14 19 14 14 18 16 13 11 10 11 13 13 10 8 12 18 21 20 16 19 18 19 31 38 40
52 33 22 29 47 43 42 38 44 55 53 24 12 12 10 8 10 10 9 10 15 18 17 16 12 12 15 15 15 15 14 14 12 11 11 15 20 17 15 11 13 20 30 36 39
54 36 28 43 41 44 39 34 46 64 58 13 17 14 14 13 15 8 8 10 11 16 14 16 11 10 17 17 16 20 12 12 12 17 22 15 25 15 13 13 11 15 26 32 38
56 44 36 50 69 41 28 33 48 62 98 6 12 12 9 13 9 7 8 10 13 12 13 16 15 14 14 13 15 18 14 14 14 19 21 18 21 16 16 16 11 13 18 29 35
50 46 49 48 48 41 41 47 60 76 89 8 5 8 8 9 9 9 8 8 9 10 11 12 9 10 14 11 11 12 14 15 16 20 28 21 23 22 17 15 11 17 22 19 31
44 46 66 64 46 48 51 49 56 98 14 6 4 3 4 4 3 5 7 11 12 15 16 12 11 9 10 13 12 13 20 30 32 31 30 19 26 21 16 12 14 20 26 27 26
45 60 66 51 48 60 51 48 100 30 16 9 8 8 7 5 5 4 4 6 6 11 13 16 18 10 8 12 14 16 20 32 39 32 27 18 32 27 14 11 10 19 19 20 26
56 51 49 48 56 55 47 66 45 18 12 14 14 12 9 6 5 6 6 7 6 7 13 17 16 9 8 8 10 16 22 17 27 26 33 26 23 17 12 10 9 16 16 17 28
70 55 42 52 64 56 48 42 24 16 14 18 24 15 14 11 11 10 10 8 6 6 8 12 19 10 9 8 9 14 14 27 26 43 42 28 26 21 18 18 11 12 14 14 20
70 52 53 57 59 48 75 46 29 21 22 25 22 24 23 23 20 19 15 12 10 9 9 10 16 16 12 12 14 14 20 21 23 28 38 40 30 17 16 20 33 28 14 15 18
76 70 60 55 66 68 66 48 38 30 26 28 28 29 30 28 29 26 24 19 15 16 17 15 18 21 15 12 9 11 16 22 33 34 29 33 31 15 16 27 28 26 17 16 24
81 54 40 52 85 62 44 40 34 32 28 26 27 24 23 28 34 27 26 19 18 20 22 24 29 29 23 17 13 16 15 19 23 25 31 37 31 16 15 15 26 23 14 14 24
83 87 42 50 57 62 58 50 44 29 29 25 26 23 26 29 25 31 28 23 20 20 37 40 37 42 42 29 25 24 17 16 22 34 30 26 23 18 15 15 25 30 21 16 24
79 71 44 76 58 52 54 73 63 54 36 34 37 30 30 37 34 31 28 26 22 23 29 39 53 39 35 26 21 19 16 15 20 21 30 25 22 18 15 15 16 16 16 18 19
90 96 54 52 47 57 64 59 54 47 39 42 45 31 34 42 36 47 36 36 38 34 35 34 53 65 56 35 27 22 22 14 14 17 17 17 21 14 14 14 17 16 14 17 18
64 56 82 71 61 64 65 50 48 40 37 29 33 38 38 33 35 38 44 53 58 49 60 76 96 76 71 36 30 32 26 16 15 14 16 20 16 14 15 15 16 18 17 18 18